Location: Niedergestelen
(46.3129°N, 7.7822°E)
Time: 19:23:05
(UTC+00:00)

X-37B - Pass Details

Date: 29 September 2021
Orbit: 385 x 389 km, 45.0° (Epoch: 17 October)

Event Time Altitude Azimuth Distance (km) Brightness Sun altitude
Exits shadow 03:02:44 25° 97° (E) 827 2.8 -24.7°
Drops below altitude 10° 03:04:14 10° 91° (E) 1,414 4.3 -24.5°
Sets 03:06:19 0° 89° (E) 2,270 5.6 -24.2°
